Location: Dammartin
(48.9032°N, 1.6195°E)
Time: 13:16:48
(UTC+00:00)

Daily predictions for brighter satellites

Satellite Brightness Start Highest point End
(mag) Time Altitude Azimuth Time Altitude Azimuth Time Altitude Azimuth
Cosmos 1544 Rocket 3.9 17:22:16 10° NNW 17:26:35 72° W 17:30:53 10° S
Cosmos 1140 Rocket 3.5 17:24:04 10° SSW 17:29:14 80° ESE 17:34:25 10° NNE
ISS -2.5 17:29:04 10° WNW 17:32:18 44° SSW 17:35:31 10° SE
Cosmos 1655 Rocket 4.0 17:27:12 10° N 17:33:30 80° E 17:39:43 10° SSE
DMSP B5D2-2 4.2 17:29:17 10° NNE 17:34:29 56° E 17:39:39 10° S
SL-08 ROCKET BODY 4.4 17:32:27 10° N 17:38:14 56° ENE 17:43:58 10° SSE
Cosmos 1190 Rocket 4.2 17:35:21 10° S 17:40:30 55° ESE 17:45:40 10° NNE
Meteor PRIRODA 3.8 17:37:21 10° S 17:40:52 76° WSW 17:44:27 10° NNW
USA 290 3.2 17:38:56 10° SW 17:42:03 47° WNW 17:45:11 10° NNE
Cosmos 1633 3.9 17:41:03 10° SE 17:43:18 17° E 17:45:34 10° NE
Cosmos 1461 4.1 17:40:03 10° S 17:43:34 25° ESE 17:47:01 11° ENE
Cosmos 2266 Rocket 4.3 17:38:14 10° NNW 17:44:32 77° W 17:50:41 10° S
Cosmos 1408 2.4 17:41:34 10° S 17:44:56 64° E 17:48:21 10° NNE
Okean O Rocket 3.0 17:42:20 10° ESE 17:45:23 19° ENE 17:48:27 10° NNE
Cosmos 1844 Rocket 2.8 17:42:01 10° NNW 17:47:29 51° NE 17:52:54 10° SE
Cosmos 1328 3.7 17:45:12 10° S 17:49:10 77° E 17:53:08 10° NNE
Lacrosse 5 rocket 1.5 17:49:39 10° NW 17:53:04 41° NNE 17:55:52 15° E
NOAA 6 4.3 17:48:02 10° S 17:53:11 75° WSW 17:58:23 10° NNW
Meteor 1-11 4.5 17:48:33 10° SSE 17:54:06 49° E 17:59:41 10° NNE
DELTA 2 DEB (DPAF) 4.2 17:49:46 10° NNE 17:54:11 84° WNW 17:58:34 10° SSW
CZ-4B DEB 4.2 17:49:04 10° SSE 17:54:26 63° ENE 17:59:51 10° N
CZ-4B R/B 3.7 17:52:04 10° SE 17:56:57 37° ENE 18:01:56 10° N
Cosmos 1553 Rocket 4.4 17:56:32 10° SSE 18:02:02 37° E 18:07:37 10° NNE
SKYMED 2 3.5 17:57:42 10° NNE 18:02:03 66° ESE 18:06:22 10° S
Cosmos 1844 3.8 17:57:46 10° NNW 18:03:32 59° ENE 18:09:12 10° SE
CZ-4 R/B 2.3 18:02:21 10° ESE 18:05:49 27° ENE 18:09:15 10° N
Cosmos 468 Rocket 3.9 18:01:11 10° NNW 18:06:23 72° ENE 18:11:30 10° SSE
Cosmos 2058 Rocket 3.7 18:02:30 10° N 18:06:30 33° ENE 18:10:30 10° SE
Cosmos 1892 2.5 18:03:03 10° S 18:06:46 74° E 18:10:32 10° NNE
Cosmos 2278 4.2 18:03:04 10° SW 18:08:42 63° WNW 18:14:23 10° NNE
CZ-4C R/B 3.1 18:05:46 10° NNE 18:09:36 64° ESE 18:13:13 10° S
Cosmos 2360 Rocket 2.6 18:05:36 10° S 18:10:49 40° ESE 18:15:52 11° NE
Cosmos 2219 Rocket 3.4 18:07:21 10° SE 18:11:13 20° E 18:12:21 18° E
YAOGAN 1 2.7 18:08:23 10° SE 18:12:33 49° ENE 18:16:44 10° N
RESURS DK-1 2.4 18:12:03 10° NNW 18:16:07 57° ENE 18:20:10 10° SE
Cosmos 1825 2.1 18:13:07 10° S 18:16:45 58° E 18:20:24 10° NNE
Cosmos 1954 Rocket 3.9 18:12:47 10° SSW 18:18:02 77° ESE 18:23:16 10° NNE
Cosmos 2278 Rocket 3.6 18:14:30 10° N 18:18:23 18° NE 18:19:41 17° NE
Cosmos 2333 Rocket 2.9 18:14:13 10° SSE 18:19:09 32° ESE 18:22:21 19° ENE
IGS 5A 4.4 18:20:49 25° E 18:21:33 26° ENE 18:25:00 10° N
APEX 4.5 18:16:18 10° SW 18:22:21 71° WNW 18:27:52 10° NNE
MOS 1-B 4.3 18:17:05 10° SSE 18:22:47 63° ENE 18:28:31 10° N
Cosmos 2322 Rocket 2.1 18:17:21 10° SSW 18:22:55 71° ESE 18:28:32 10° NNE
Cosmos 1763 Rocket 3.8 18:18:28 10° NNW 18:23:39 70° WSW 18:28:43 10° SSE
USA 215 4.3 18:17:59 10° SSE 18:24:12 45° SW 18:30:28 10° WNW
Meteor 2-12 Rocket 4.3 18:19:14 10° N 18:25:21 77° E 18:31:24 10° SSE
ATLAS 2AS CENTAUR R/B 3.2 18:24:42 10° NW 18:31:36 62° WSW 18:38:06 10° SSE
BlueWalker 3 2.6 18:27:56 10° WNW 18:31:40 43° N 18:33:03 30° NE
SL-4 R/B 1.9 18:28:27 10° WNW 18:31:55 55° N 18:33:04 37° ENE
Lacrosse 5 1.8 18:27:52 10° SW 18:32:58 78° SE 18:35:50 27° ENE
COSMOS 2428 4.4 18:30:45 10° SE 18:32:20 15° SE 18:32:20 15° SE
Cosmos 1606 Rocket 4.1 18:30:30 10° NNW 18:34:45 60° W 18:39:00 10° S
IRIDIUM 104 4.2 18:29:34 10° N 18:34:48 67° E 18:39:59 10° SSE
ATLAS 5 CENTAUR R/B 3.9 18:33:38 10° NNW 18:35:51 14° N 18:37:52 11° NNE
Nadezhda 2 Rocket 4.5 18:30:00 10° N 18:36:13 86° W 18:42:20 10° S
Cosmos 841 Rocket 3.5 18:31:03 10° NNW 18:36:20 63° ENE 18:41:31 10° SE
S3M 4.3 18:31:18 10° SSE 18:37:13 42° E 18:43:08 10° NNE
Feng Yun 1-1 Rocket 4.3 18:32:10 10° SE 18:37:31 52° ENE 18:42:48 10° N
SL-16 R/B 2.5 18:31:55 10° SW 18:37:34 69° WNW 18:43:16 10° NNE
Cosmos 1741 Rocket 4.4 18:32:50 10° S 18:37:45 40° ESE 18:40:09 26° NE
Cosmos 540 Rocket 3.5 18:32:35 10° NNW 18:37:46 81° WSW 18:42:53 10° SSE
In-Cosmos 22 Rocket 4.2 18:32:18 10° S 18:38:07 87° E 18:44:00 10° NNE
Cosmos 1340 2.5 18:34:35 10° N 18:38:14 61° ENE 18:41:51 10° SSE
Cosmos 2333 4.5 18:34:58 10° S 18:40:14 43° ESE 18:42:55 26° NE
Cosmos 1606 4.2 18:36:50 10° N 18:38:34 21° NNE 18:38:34 21° NNE
IRIDIUM 114 4.2 18:38:41 10° N 18:43:56 80° E 18:49:09 10° S
Gblst 52 Del rocket 4.1 18:38:35 10° WSW 18:44:13 87° NNW 18:46:47 33° ENE
MINOTAUR 4 R/B 3.8 18:46:22 48° NE 18:47:10 70° ESE 18:50:33 10° S
Cosmos 1892 Rocket 3.5 18:43:31 10° S 18:47:57 88° WNW 18:52:22 10° N
CSL-04 Rocket 4.1 18:47:08 34° E 18:48:16 38° ENE 18:53:14 10° N
COSMO-SKYMED 1 3.8 18:45:53 10° N 18:49:59 42° WNW 18:54:05 10° SW
Cosmos 1980 Rocket 4.3 18:45:57 10° W 18:50:17 22° NW 18:54:39 10° N
Spot 1 4.1 18:51:48 48° ESE 18:51:48 48° ESE 18:55:34 10° S
IRIDIUM 103 4.3 18:47:51 10° N 18:53:07 86° W 18:58:20 10° S
Cosmos 2315 Rocket 4.5 18:50:57 10° SSE 18:56:38 36° E 19:02:22 10° NNE
Cosmos 1943 Rocket 4.0 18:55:00 10° N 18:57:55 16° NNE 18:57:55 16° NNE
Genesis I 3.0 18:55:45 10° SSW 18:59:42 72° SE 18:59:51 71° ESE
Cosmos 2322 4.2 18:55:37 10° S 19:00:25 37° ESE 19:00:25 37° ESE
ATLAS CENTAUR R/B 3.7 18:57:28 10° WNW 19:00:54 20° NNW 19:03:35 13° NNE
Meteor 1-27 4.5 18:56:49 10° NNW 19:02:36 71° W 19:08:16 10° S
Cosmos 1869 3.9 19:00:50 10° NNW 19:04:39 55° W 19:08:29 10° S
Cosmos 1633 4.2 19:14:11 10° SW 19:17:11 31° WNW 19:19:32 15° NNW
Okean O Rocket 2.1 19:16:58 10° S 19:21:17 59° WSW 19:25:42 10° NNW
Cosmos 1745 Rocket 4.0 19:15:40 10° NNW 19:21:56 79° W 19:28:06 10° S
Cosmos 1461 3.7 19:17:57 10° WSW 19:22:09 50° NW 19:23:10 41° N
Okean-O 4.3 19:25:58 23° N 19:25:58 23° N 19:27:46 10° N
SJ-6B 4.3 19:26:54 29° NNW 19:26:54 29° NNW 19:28:57 10° NNW
Cosmos 1844 Rocket 4.5 19:26:21 10° NW 19:31:07 29° WSW 19:35:50 10° SSW
Lacrosse 5 rocket 2.5 19:28:32 10° WNW 19:31:18 36° WSW 19:31:18 36° WSW
Cosmos 1709 Rocket 3.9 19:34:17 10° N 19:40:28 87° W 19:43:12 36° S
CZ-4 R/B 3.1 19:36:53 10° SSW 19:40:36 32° W 19:44:18 10° NNW
Cosmos 44 Rocket 4.2 19:46:09 10° SW 19:49:10 40° SW 19:49:10 40° SW
Cosmos 2219 Rocket 2.3 19:48:56 10° SSW 19:54:10 72° W 19:54:10 72° W
Cosmos 2360 Rocket 3.4 19:49:33 10° WSW 19:54:50 40° NW 19:57:41 24° N
Cosmos 2333 Rocket 2.9 19:57:43 10° SW 20:03:13 49° NW 20:04:26 42° NNW
Cosmos 2278 Rocket 3.0 19:57:49 10° NNW 20:01:33 42° NNW 20:01:33 42° NNW
Cosmos 2322 Rocket 4.1 20:02:52 10° W 20:07:31 26° NW 20:10:38 16° N
Lacrosse 5 3.3 20:11:29 10° W 20:15:03 34° NW 20:15:03 34° NW
COSMOS 2428 4.4 20:12:24 10° SSW 20:14:26 23° SSW 20:14:26 23° SSW
ATLAS 5 CENTAUR R/B 4.3 20:18:26 10° NNW 20:19:14 13° NNW 20:19:14 13° NNW
Cosmos 1943 Rocket 4.3 20:37:48 10° NNW 20:39:27 20° NNW 20:39:27 20° NNW
